Location: Montr�al
(45.5000°N, 73.5830°W)
Time: 12:26:30
(UTC-04:00)

ISS - All Passes

Search period start: 31 October 2014 00:00
Search period end: 09 November 2014 23:00
Orbit: 412 x 417 km, 51.6° (Epoch: 31 October)

Date Brightness Start Highest point End Pass type
(mag) Time Alt. Az. Time Alt. Az. Time Alt. Az.
31 Oct - 10:41:34 10° SW 10:44:46 46° SE 10:47:59 10° ENE daylight
31 Oct - 12:18:21 10° W 12:21:31 39° NNW 12:24:42 10° NE daylight
31 Oct - 13:55:51 10° WNW 13:58:46 27° N 14:01:42 10° ENE daylight
31 Oct - 15:32:38 10° WNW 15:35:56 54° NNE 15:39:13 10° ESE daylight
31 Oct - 17:09:34 10° W 17:12:29 28° SW 17:15:23 10° SSE daylight
01 Nov - 09:52:49 10° SSW 09:55:42 28° SE 09:58:37 10° ENE daylight
01 Nov - 11:28:59 10° W 11:32:15 53° NNW 11:35:32 10° NE daylight
01 Nov - 13:06:30 10° WNW 13:09:25 27° N 13:12:20 10° ENE daylight
01 Nov - 14:43:29 10° NW 14:46:40 40° NNE 14:49:50 10° E daylight
01 Nov - 16:20:11 10° WNW 16:23:24 45° SW 16:26:36 10° SE daylight
02 Nov - 08:04:23 10° S 08:06:39 17° SE 08:08:56 10° E daylight
02 Nov - 09:39:40 10° WSW 09:43:00 78° NNW 09:46:20 10° ENE daylight
02 Nov - 11:17:03 10° WNW 11:20:02 29° N 11:23:01 10° NE daylight
02 Nov - 12:54:15 10° NW 12:57:19 32° NNE 13:00:22 10° ENE daylight
02 Nov - 14:30:54 10° WNW 14:34:14 75° SSW 14:37:33 10° SE daylight
02 Nov - 16:09:10 10° WSW 16:10:24 12° SW 16:11:38 10° SSW daylight
03 Nov - 07:17:09 10° SE 07:17:38 10° SE 07:18:06 10° ESE daylight
03 Nov - 08:50:27 10° SW 08:53:45 68° SSE 08:57:04 10° ENE daylight
03 Nov - 10:27:33 10° W 10:30:37 34° NNW 10:33:42 10° NE daylight
03 Nov - 12:04:56 10° NW 12:07:54 29° N 12:10:52 10° ENE daylight
03 Nov - 13:41:37 10° WNW 13:44:58 71° NNE 13:48:17 10° ESE daylight
03 Nov - 15:18:53 10° W 15:21:21 19° SW 15:23:48 10° S daylight
04 Nov - 08:01:23 10° SW 08:04:31 40° SE 08:07:40 10° ENE daylight
04 Nov - 09:38:01 10° W 09:41:12 42° NNW 09:44:24 10° NE daylight
04 Nov - 11:15:31 10° WNW 11:18:26 27° N 11:21:21 10° ENE daylight
04 Nov - 12:52:21 10° NW 12:55:36 49° NNE 12:58:51 10° E daylight
04 Nov - 14:29:12 10° WNW 14:32:12 31° SW 14:35:11 10° SSE daylight
05 Nov - 07:12:33 10° SSW 07:15:18 25° SE 07:18:05 10° E daylight
05 Nov - 08:48:31 10° WSW 08:51:47 58° NNW 08:55:05 10° ENE daylight
05 Nov - 10:26:00 10° WNW 10:28:55 27° N 10:31:51 10° ENE daylight
05 Nov - 12:03:01 10° NW 12:06:10 37° NNE 12:09:18 10° E daylight
05 Nov - 13:39:41 10° WNW 13:42:57 52° SW 13:46:11 10° SE daylight
06 Nov - 06:24:07 10° S 06:26:07 15° SE 06:28:07 10° E daylight
06 Nov - 07:59:04 10° WSW 08:02:23 87° NNW 08:05:43 10° ENE daylight
06 Nov - 09:36:23 10° WNW 09:39:22 30° N 09:42:22 10° NE daylight
06 Nov - 11:13:37 10° NW 11:16:39 31° N 11:19:40 10° ENE daylight
06 Nov - 12:50:15 10° WNW 12:53:36 84° SSW 12:56:55 10° ESE daylight
06 Nov - 14:28:06 10° WSW 14:29:49 13° SW 14:31:31 10° SSW daylight
07 Nov - 07:09:44 10° SW 07:13:00 59° SE 07:16:16 10° ENE daylight
07 Nov - 08:46:43 10° W 08:49:49 35° NNW 08:52:55 10° NE daylight
07 Nov - 10:24:08 10° WNW 10:27:04 28° N 10:30:00 10° ENE daylight
07 Nov - 12:00:50 10° WNW 12:04:09 64° NNE 12:07:27 10° ESE daylight
07 Nov - 13:37:56 10° W 13:40:35 22° SW 13:43:13 10° S daylight
08 Nov - 06:20:34 10° SSW 06:23:37 35° SE 06:26:41 10° ENE daylight
08 Nov - 07:57:02 10° W 08:00:15 45° NNW 08:03:28 10° NE daylight
08 Nov - 09:34:32 10° WNW 09:37:26 27° N 09:40:20 10° ENE daylight
08 Nov - 11:11:24 10° NW 11:14:37 45° NNE 11:17:50 10° E daylight
08 Nov - 12:48:10 10° WNW 12:51:15 36° SW 12:54:20 10° SSE daylight
09 Nov - 05:31:40 10° S 05:34:16 21° SE 05:36:52 10° E visible
09 Nov - 07:07:23 10° WSW 07:10:41 65° NNW 07:13:59 10° ENE daylight
09 Nov - 08:44:49 10° WNW 08:47:45 28° N 08:50:41 10° NE daylight
09 Nov - 10:21:54 10° NW 10:25:00 35° NNE 10:28:06 10° E daylight
09 Nov - 11:58:32 10° WNW 12:01:49 60° SSW 12:05:06 10° SE daylight
